STARLINK-36904, 67977

Orbit data source: Space-Track

STARLINK-36904, 67977 is a payload satellite owned by SpaceX/Seattle (US) in SSO that was launched on Wed, 25 Feb 2026 UTC via an FALCON 9 launch vehicle from the Air Force Western Test Range (AFWTR). Payload-class satellites include a variety of spacecraft equipped with specific instruments for various scientific and technological missions. These include communications satellites like Starlink; space stations such as the ISS; scientific satellites like the Hubble; Earth observation satellites from companies like Planet Labs, Umbra, and HawkEye 360; GPS; miniature CubeSats for education and research; and military/defense satellites.

Loading next visibility...
Identifier
67977, 2026-038S
Orbit
SSO
Country
Flag of USUS
Related business
Manufacturer
SpaceX/Seattle
Mission
Operational Commercial Communications
Bus & Motor
STARLINK V2MO, Unknown motor
Mass
575 kg wet, ~530 kg dry
Launch date (UTC)
2026-02-25 (4 months ago)
Launch vehicle
FALCON 9
Launch site
Air Force Western Test Range (AFWTR)
Object type
Payload
Rocket body
Debris
Shape & HBR
Box + 2 Pan, 17.7 m
Radar Cross Section
36.964 m², Large (>1 m²)

Expand to show TLE details & history
Last TLE update: 21 hours ago

TLE from 21 hours ago
0 STARLINK-36904
1 67977U 26038S   26170.95471070  .00014527  00000-0  45126-3 0  9994
2 67977  97.2840 180.6489 0002063  90.1276 270.0203 15.33457215 18919
Epoch: 2026-06-19T22:54Z
TLE epoch observation values (Epoch: 2026-06-19T22:54:47.004Z)
Latitude
-0.00004°
Longitude
-71.22322°
Altitude
468.619 km
Speed
7.632 km/s
True Right ascension
12h 02m 35s
True Declination
0° 00' 00"
Sunlit
Object was in daylight at epoch
Visualization orbit readout
Latitude
Unknown
Longitude
Unknown
Altitude
Unknown
Speed
Unknown
Apparent Right ascension
Unknown
Apparent Declination
Unknown
Sunlit
N/A
Visualization observer readout
Local Sidereal Time
07:12:41
Azimuth
Unknown
Elevation
Unknown
Doppler factor
Unknown
Orbital elements
Apogee altitude
463.861 km
Perigee altitude
461.038 km
Semi-major axis
6,840.587 km
Eccentricity
0.00021
Inclination
97.284°
RAAN
180.6489°
Arg. of periapsis
90.1276°
True anomaly
269.99666°
Mean anomaly
270.0203°
Eccentric anomaly
270.00848°
Mean motion
3.83622 °/min
Orbital period
93.84 mins
BSTAR
0.00045126
Loading maneuver chart data...
Computing Atmospheric mass density...
Loading historical data...
Loading historical data...
Loading historical data...
Loading historical data...
Loading historical data...
Loading historical data...
Loading historical data...

Documentation

Showing up to 5 results
|